Location: Bretagne
(43.8474°N, 0.4650°W)
Time: 03:55:45
(UTC+00:00)

USA 238 - Visible Passes

Search period start: 21 April 2026 00:00
Search period end: 01 May 2026 00:00
Orbit: 883 x 1328 km, 63.4° (Epoch: 10 January)

Date Brightness Start Highest point End Pass type
(mag) Time Alt. Az. Time Alt. Az. Time Alt. Az.
21 Apr 4.1 19:25:55 10° NW 19:33:26 85° NE 19:41:35 10° SE visible
21 Apr 5.7 21:17:57 10° WNW 21:23:47 24° WSW 21:29:53 10° SSW visible
22 Apr 5.2 20:32:17 10° NW 20:39:06 37° WSW 20:46:20 10° S visible
23 Apr 4.7 19:46:57 10° NW 19:54:16 55° WSW 20:02:09 10° SSE visible
23 Apr 6.5 21:43:16 10° W 21:43:55 10° WSW 21:44:35 10° WSW visible
24 Apr 6.1 20:54:34 10° WNW 20:59:27 18° WSW 21:04:31 10° SW visible
25 Apr 5.7 20:08:30 10° NW 20:14:49 29° WSW 20:21:29 10° SSW visible
26 Apr 5.2 19:23:00 10° NW 19:30:05 44° WSW 19:37:39 10° S visible
27 Apr 6.4 20:31:42 10° WNW 20:35:04 13° WSW 20:38:30 10° SW visible
28 Apr 6.2 19:44:55 10° WNW 19:50:32 22° WSW 19:56:23 10° SSW visible
